Regional Weather Roundup
Issued by NWS Northern Indiana

Home | Current Version | Previous Version | Graphics & Text | Print | Product List | Glossary On
Versions: 1 2 3 4 5 6 7 8 9 10 11 12 13 14 15 16 17 18 19 20 21 22 23 24 25 26 27 28 29 30 31 32 33 34 35 36 37 38 39 40 41 42 43 44 45 46 47 48 49 50
000
ASUS43 KIWX 250900
RWRIWX

KIWX WEATHER ROUNDUP
NATIONAL WEATHER SERVICE NORTHERN INDIANA
500 AM EDT MON MAY 25 2015

NOTE: "FAIR" INDICATES FEW OR NO CLOUDS BELOW 12,000 FEET WITH NO
SIGNIFICANT WEATHER AND/OR OBSTRUCTIONS TO VISIBILITY.

* THESE STATIONS ARE NOT UNDER NWS QUALITY CONTROL. THEY ALSO MAY NOT
  REPORT WEATHER SUCH AS PRECIPITATION OR FOG.

INZ001>027-251000-
NORTHERN INDIANA

CITY           SKY/WX    TMP DP  RH WIND       PRES   REMARKS
SOUTH BEND     CLOUDY    73  59  61 S14       29.92F
GOSHEN         MOCLDY    70  58  65 S16       29.95F
ANGOLA*        CLEAR     68  55  64 S7        29.98F
FORT WAYNE     CLOUDY    70  57  63 S14       30.00F

$$
INZ028>050-251000-
CENTRAL INDIANA

CITY           SKY/WX    TMP DP  RH WIND       PRES   REMARKS
LAFAYETTE      CLOUDY    73  62  68 S14G25    29.93R
KOKOMO*        MOCLDY    70  57  64 S15       29.97S
MUNCIE*        CLOUDY    73  58  59 S13G21    30.02S
INDIANAPOLIS   CLOUDY    73  60  63 S18       30.00R

$$
MIZ043>046-050>051-056>058-064>065-071>073-077>080-251000-
SOUTHWEST LOWER MICHIGAN

CITY           SKY/WX    TMP DP  RH WIND       PRES   REMARKS
BATTLE CREEK   CLEAR     72  57  59 S15       29.95F
BENTON HARBOR  CLOUDY    70  59  68 S8        29.90S
COLDWATER*     CLEAR     70  55  57 S7        29.97F
HILLSDALE*     CLEAR     68  54  60 S7        30.00F
HOLLAND        MOCLDY    71  58  63 S12       29.90F
GRAND RAPIDS   PTCLDY    70  57  63 S10       29.92F
KALAMAZOO      PTCLDY    70  57  63 S12       29.94F
STURGIS*       PTCLDY    70  55  60 S10       29.95F
THREE RIVERS*  FAIR      69  56  64 S8G16     29.95F

$$
OHZ001>008-015>018-024>025-251000-
NORTHWEST OHIO

CITY           SKY/WX    TMP DP  RH WIND       PRES   REMARKS
DEFIANCE       CLEAR     69  53  56 S10       30.01S
FINDLAY        PTCLDY    68  52  56 S10       30.04F
TOLEDO EXPRESS CLEAR     65  51  60 S5        30.02F
TOLEDO METCALF CLEAR     68  51  54 S10       30.03F
LIMA           MOCLDY    70  53  54 S12       30.05S

$$
AND FOR LAKE MICHIGAN COASTAL AND OPEN LAKE BUOY OBSERVATIONS

STATION/POSITION TEMP    WIND        PRES    VSBY  WAVE
                 AIR SEA DIR/SP/G                  HT/PER
                 (F)     (DEG/KT/KT) (MB)    (MI)  (FT/S)
CALUMET HARBOR    73     180/ 12/ 16   N/A
MICHIGAN CITY     74     150/ 17/ 23   N/A
BURNS HARBOR      72     180/ 12/ 20 1012.5R
SAINT JOSEPH      72     160/  4/ 11 1013.2R
SOUTH LAKE BUOY   48 38  170/ 14/ 16 1011.3F         1/ 3
4 MI NW BRIDGMAN  67 54  210/ 16/ 21   N/A           2/ 3
MICHIGAN CITY     66 53  200/ 12/ 17   N/A           2/ 2

$$
&&


USA.gov is the U.S. government's official web portal to all federal, state and local government web resources and services.